Location: Beekmeers
(50.8953°N, 3.6968°E)
Time: 06:35:07
(UTC+00:00)

SENTINEL 1B - Pass Details

Date: 14 October 2025
Orbit: 561 x 585 km, 98.1° (Epoch: 17 November)

Event Time Altitude Azimuth Distance (km) Brightness Sun altitude
Exits shadow 19:26:34 35° 10° (N) 969 6.3 -24.5°
Drops below altitude 10° 19:29:08 10° 353° (N) 1,925 8.2 -24.9°
Sets 19:31:20 0° 349° (N) 2,829 9.1 -25.3°
